[[{"header":{"parameterUnit":"m.s-1","parameterCategory":1,"la1":30.2991,"la2":30.254,"lo1":-89.0895,"lo2":-89.0444,"dy":0.0017,"dx":0.0017,"nx":28,"ny":28,"refTime":"2023-09-24T03:00:00:Z","depth":0,"parameterNumber":2,"parameterNumberName":"U-component_of_WINDS"},"data":[0,0,0,0,0,0,0,0,0,0,0,0,0,0,0,0,0,0,0,0,0,0,0,0,0,0,0,0,0,0,0,0,0,0,0,0,0,0,0,0,0,0,0,0,0,0,0,0,0,0,0,0,0,0,0,0,0,0,2.5939,2.594,0,2.6051,2.6052,2.6053,2.6049,2.6047,2.6046,2.6044,2.6156,2.616,2.6165,0,0,0,0,0,0,0,0,0,0,0,0,0,2.5716,2.572,2.5939,2.594,2.5942,2.6051,2.6052,2.6054,2.6049,2.6047,2.6045,2.6044,2.6154,2.616,2.6165,0,0,0,0,0,0,0,0,0,0,0,0,0,2.5819,2.5722,2.5939,2.5953,2.5955,2.605,2.6052,2.6054,2.605,2.6047,2.6045,2.6043,2.6153,2.6159,2.6166,2.6254,0,0,2.6186,2.6189,0,0,0,0,0,0,0,0,2.5813,2.5827,2.5949,2.5952,2.5955,2.6034,2.6014,2.6121,2.605,2.6014,2.6044,2.6041,2.6117,2.6126,2.6152,2.6259,2.6264,2.6187,2.6191,2.6193,2.6195,0,0,0,0,0,0,0,2.5806,2.5822,2.5983,2.5951,2.5954,2.5952,2.5964,2.6035,2.6077,2.6017,2.6017,2.603,2.6118,2.6146,2.6155,2.6265,2.6186,2.6192,2.6196,2.6199,2.6444,2.6447,0,0,0,0,0,0,2.5796,2.5816,2.598,2.5986,2.5877,2.5957,2.5971,2.6011,2.6076,2.6084,2.6032,2.6029,2.6136,2.6147,2.6159,2.6263,2.6193,2.62,2.6203,2.6442,2.6445,2.6448,0,0,0,0,0,0,2.5792,2.5811,2.5975,2.5901,2.5922,2.5964,2.6008,2.6014,2.6042,2.6088,2.6095,2.6053,2.6134,2.6149,2.6229,2.6267,2.6203,2.6209,2.6439,2.6443,2.6446,2.6473,0,0,0,0,0,0,2.5785,2.5809,2.5845,2.5902,2.5926,2.6045,2.6011,2.6018,2.6054,2.6052,2.6109,2.6117,2.6134,2.6219,2.6236,2.6275,2.6214,2.6436,2.6441,2.6445,2.6469,2.6477,2.6484,0,0,0,0,0,2.5777,2.5848,2.5846,2.5866,2.5971,2.6048,2.6061,2.608,2.6057,2.6091,2.612,2.6115,2.626,2.6227,2.6246,2.6287,2.6433,2.6439,2.6445,2.6465,2.6476,2.6484,0,0,0,0,0,0,2.5794,2.5856,2.5855,2.5947,2.5992,2.6047,2.6091,2.6091,2.6142,2.6138,2.6158,2.6171,2.625,2.6277,2.624,2.6373,2.6344,2.6353,2.6353,2.6363,2.6371,2.6361,2.6219,0,0,0,0,0,2.5808,2.5866,2.5917,2.5993,2.6016,2.6049,2.6083,2.6094,2.6141,2.616,2.6194,2.6239,2.6294,2.6331,2.6384,2.6473,2.6483,2.651,2.6518,2.6524,2.6532,2.6576,2.6588,2.6466,2.6466,2.6466,0,0,2.5838,2.5879,2.5915,2.5997,2.6033,2.609,2.6065,2.6128,2.617,2.6169,2.6246,2.6272,2.6323,2.6407,2.6446,2.6432,2.6567,2.6531,2.6536,2.654,2.6583,2.6595,2.6605,2.647,2.647,2.6469,0,0,2.5921,2.596,2.6026,2.6062,2.6117,2.6138,2.6154,2.6209,2.6226,2.6304,2.6303,2.6352,2.6448,2.6483,2.6514,2.6607,2.6603,2.6624,2.6664,2.6707,2.6717,2.6725,2.6755,2.6766,2.6632,2.6632,2.6632,0,2.5951,2.604,2.6059,2.6122,2.6156,2.6158,2.6222,2.6257,2.6326,2.6349,2.6333,2.645,2.6485,2.6575,2.6597,2.6623,2.6639,2.6617,2.6714,2.6723,2.6731,2.6759,2.6771,2.6634,2.6634,2.6633,2.6633,0,2.6072,2.6132,2.6179,2.6245,2.6285,2.6349,2.6376,2.6413,2.642,2.6442,2.6518,2.656,2.662,2.6643,2.665,2.6733,2.6722,2.671,2.668,2.6744,2.6771,2.6783,2.6637,2.6636,2.6635,2.6635,0,0,2.6169,2.6244,2.626,2.6289,2.6348,2.6395,2.6457,2.6516,2.6546,2.6593,2.6643,2.6723,2.6711,2.6746,2.6757,2.6795,2.6862,2.6778,2.6779,2.6789,2.6951,2.6957,2.697,2.686,2.6862,2.6864,2.6945,0,2.6256,2.6367,2.6385,2.6482,2.6536,2.6537,2.659,2.6631,2.6653,2.67,2.6724,2.6779,2.6761,2.6781,2.6819,2.6845,2.6894,2.684,2.6904,2.6906,2.6888,2.6985,2.6993,2.7068,2.6956,2.6958,2.696,0,2.6374,2.6423,2.6524,2.6573,2.6596,2.6644,2.6698,2.6745,2.6789,2.6802,2.6839,2.6845,2.6906,2.6874,2.6957,2.692,2.6947,2.6963,2.6967,2.6971,2.6935,2.6989,2.7093,2.7103,2.6977,2.6976,2.6974,0,2.643,2.6522,2.6594,2.6619,2.6678,2.6711,2.6737,2.678,2.6813,2.686,2.6881,2.6934,2.6962,2.7002,2.702,2.6996,2.7101,2.7072,2.711,2.711,2.7131,2.7129,2.7237,2.7153,2.7153,2.7152,2.7152,0,2.6524,2.6585,2.6619,2.6663,2.6731,2.675,2.6816,2.6841,2.6878,2.6925,2.6929,2.6972,2.6995,2.7041,2.7056,2.712,2.7134,2.7144,2.7146,2.7142,2.714,2.7158,2.7153,2.7155,2.7155,2.7154,2.7154,0,2.6598,2.6624,2.6702,2.6751,2.6765,2.6812,2.6853,2.6894,2.6915,2.6974,2.6989,2.7021,2.7075,2.7098,2.7165,2.7174,2.7247,2.7247,2.7231,2.7232,2.7268,2.7263,2.739,2.7406,2.7313,2.7314,2.7315,0,2.6656,2.6703,2.6756,2.6788,2.6815,2.6867,2.69,2.692,2.6954,2.7007,2.7041,2.7095,2.7139,2.7225,2.7253,2.7303,2.7303,2.7344,2.731,2.7303,2.7299,2.7295,2.7298,2.7349,2.735,2.7351,2.7351,0,2.6753,2.6763,2.6812,2.6864,2.6904,2.6946,2.6987,2.7012,2.7038,2.7075,2.7131,2.7165,2.7232,2.7284,2.7335,2.736,2.7359,2.7362,2.7373,2.7367,2.7355,2.7359,2.7245,2.7358,2.7358,2.7357,2.7357,2.7356,2.6819,2.6859,2.6902,2.6955,2.6988,2.7025,2.7065,2.7091,2.7137,2.7194,2.7202,2.726,2.73,2.7369,2.7395,2.7439,2.7428,2.7445,2.7449,2.7452,2.7453,2.735,2.7449,2.7449,2.7448,2.7448,2.7448,0,2.6914,2.6941,2.699,2.7046,2.7087,2.7083,2.7128,2.7161,2.7213,2.7251,2.7294,2.7355,2.7405,2.7437,2.7486,2.7515,2.7515,2.7527,2.7524,2.7529,2.7461,2.7445,2.7526,2.7526,2.7526,2.7526,2.7526,2.7526,2.6968,2.7034,2.7049,2.713,2.7157,2.7214,2.7239,2.7272,2.7302,2.7371,2.7412,2.7433,2.7467,2.7519,2.7563,2.7571,2.7588,2.76,2.7606,2.7542,2.7534,2.7526,2.7511,2.7604,2.7604,2.767,2.767,2.7671]},{"header":{"parameterUnit":"m.s-1","parameterCategory":1,"la1":30.2991,"la2":30.254,"lo1":-89.0895,"lo2":-89.0444,"dy":0.0017,"dx":0.0017,"nx":28,"ny":28,"refTime":"2023-09-24T03:00:00:Z","depth":0,"parameterNumber":3,"parameterNumberName":"V-component_of_WINDS"},"data":[0,0,0,0,0,0,0,0,0,0,0,0,0,0,0,0,0,0,0,0,0,0,0,0,0,0,0,0,0,0,0,0,0,0,0,0,0,0,0,0,0,0,0,0,0,0,0,0,0,0,0,0,0,0,0,0,0,0,1.0672,1.0673,0,1.081,1.0811,1.0813,1.083,1.0829,1.0828,1.0827,1.0969,1.0974,1.0979,0,0,0,0,0,0,0,0,0,0,0,0,0,1.0424,1.0428,1.0672,1.0673,1.0675,1.0809,1.0811,1.0813,1.0831,1.0829,1.0827,1.0826,1.0968,1.0974,1.098,0,0,0,0,0,0,0,0,0,0,0,0,0,1.0544,1.043,1.0671,1.07,1.0704,1.0809,1.0811,1.0814,1.0831,1.0829,1.0827,1.0825,1.0966,1.0973,1.0981,1.1067,0,0,1.1004,1.1007,0,0,0,0,0,0,0,0,1.0537,1.0553,1.0694,1.0698,1.0703,1.0801,1.0776,1.0899,1.0832,1.0783,1.0826,1.0824,1.0915,1.0927,1.0957,1.1074,1.108,1.1004,1.1009,1.1012,1.1014,0,0,0,0,0,0,0,1.0529,1.0547,1.0726,1.0696,1.0702,1.0706,1.0721,1.08,1.0859,1.0787,1.0789,1.0804,1.0917,1.095,1.096,1.1082,1.1004,1.1011,1.1016,1.1019,1.1275,1.1277,0,0,0,0,0,0,1.0515,1.054,1.0722,1.073,1.0613,1.0712,1.0729,1.0771,1.0858,1.0869,1.0806,1.0805,1.0938,1.0952,1.0966,1.1072,1.1012,1.1019,1.1024,1.1273,1.1276,1.1278,0,0,0,0,0,0,1.0509,1.0531,1.0716,1.0636,1.066,1.0718,1.0766,1.0775,1.0808,1.0872,1.0883,1.0829,1.0937,1.0955,1.1041,1.1077,1.1023,1.103,1.127,1.1274,1.1277,1.1286,0,0,0,0,0,0,1.0502,1.0529,1.0563,1.0636,1.0664,1.079,1.0769,1.0779,1.0821,1.082,1.0896,1.0907,1.0936,1.103,1.1049,1.1087,1.1036,1.1267,1.1272,1.1276,1.1282,1.1289,1.1294,0,0,0,0,0,1.0493,1.056,1.0564,1.0586,1.0707,1.0792,1.0808,1.084,1.0823,1.0858,1.0898,1.0904,1.107,1.1039,1.106,1.1101,1.1265,1.1271,1.1276,1.128,1.1288,1.1294,0,0,0,0,0,0,1.0491,1.0571,1.0576,1.0669,1.0723,1.0795,1.0839,1.0848,1.0909,1.0906,1.0944,1.0961,1.1046,1.1082,1.1046,1.1188,1.1166,1.1176,1.1162,1.117,1.1176,1.1166,1.1042,0,0,0,0,0,1.05,1.0562,1.0629,1.0704,1.0731,1.078,1.0819,1.0838,1.0897,1.0921,1.0968,1.1025,1.1089,1.1131,1.1195,1.1287,1.1304,1.1325,1.1331,1.1336,1.1344,1.1395,1.1405,1.1295,1.1295,1.1295,0,0,1.0522,1.0573,1.0611,1.0705,1.075,1.0813,1.08,1.0868,1.0915,1.0931,1.1015,1.1052,1.1118,1.1207,1.1249,1.124,1.1378,1.1342,1.1346,1.1352,1.1401,1.1411,1.142,1.1299,1.1298,1.1297,0,0,1.0594,1.0639,1.0706,1.0751,1.0818,1.085,1.0866,1.0936,1.096,1.1045,1.1058,1.1114,1.1225,1.1271,1.1309,1.1395,1.1403,1.1415,1.1447,1.1496,1.1504,1.1512,1.1543,1.1553,1.1423,1.1423,1.1423,0,1.0613,1.0709,1.074,1.0807,1.0848,1.0863,1.0931,1.0973,1.1058,1.1086,1.1074,1.1212,1.1258,1.1357,1.1378,1.1408,1.1427,1.1407,1.15,1.1508,1.1516,1.1546,1.1557,1.1424,1.1424,1.1423,1.1423,0,1.0728,1.0794,1.084,1.092,1.0966,1.1033,1.1074,1.1117,1.1132,1.1165,1.125,1.1305,1.1379,1.1404,1.142,1.1506,1.1498,1.1492,1.1471,1.1527,1.1556,1.1567,1.1425,1.1425,1.1424,1.1424,0,0,1.0804,1.0899,1.0915,1.0951,1.1025,1.1077,1.1144,1.1215,1.1251,1.1308,1.1365,1.1457,1.1452,1.1495,1.1516,1.1559,1.1623,1.1549,1.1551,1.1561,1.172,1.1724,1.1737,1.1628,1.163,1.1632,1.1715,0,1.0885,1.1005,1.1034,1.1137,1.1197,1.1212,1.127,1.1322,1.1354,1.141,1.1445,1.1509,1.1498,1.1524,1.1567,1.1606,1.1656,1.16,1.1682,1.1684,1.1665,1.1752,1.1756,1.1832,1.1726,1.1728,1.1729,0,1.0996,1.1054,1.1162,1.1227,1.1253,1.1305,1.1372,1.1425,1.1484,1.1504,1.155,1.1566,1.1636,1.161,1.1707,1.1669,1.1703,1.1727,1.1731,1.1741,1.1711,1.1764,1.1857,1.1868,1.1747,1.1746,1.1744,0,1.104,1.1146,1.1224,1.1254,1.1331,1.1367,1.1401,1.1457,1.1498,1.1556,1.1582,1.1648,1.1684,1.1734,1.1768,1.1746,1.1861,1.1838,1.188,1.1879,1.1905,1.1903,1.2006,1.1926,1.1926,1.1926,1.1925,0,1.1128,1.1194,1.1245,1.1293,1.1366,1.1399,1.1471,1.1505,1.1554,1.1609,1.1625,1.1676,1.1717,1.1773,1.18,1.1875,1.1892,1.191,1.1916,1.1909,1.1907,1.1933,1.1929,1.1929,1.1928,1.1927,1.1927,0,1.1191,1.1228,1.1314,1.1379,1.1397,1.1448,1.1504,1.1551,1.1582,1.1651,1.1669,1.1718,1.1785,1.1823,1.1908,1.1925,1.201,1.2013,1.199,1.1993,1.2033,1.2028,1.2156,1.2174,1.2082,1.2083,1.2083,0,1.1245,1.1295,1.1365,1.1403,1.1437,1.1497,1.1538,1.1571,1.1612,1.1681,1.172,1.1787,1.1844,1.195,1.1993,1.2058,1.2063,1.2103,1.2073,1.2064,1.2064,1.2061,1.2066,1.2109,1.211,1.2111,1.2111,0,1.1336,1.1351,1.1409,1.1473,1.152,1.1572,1.1624,1.1654,1.1695,1.1741,1.1809,1.1852,1.1938,1.2005,1.2072,1.2107,1.2116,1.212,1.2133,1.2127,1.2111,1.212,1.2005,1.2117,1.2117,1.2116,1.2116,1.2116,1.1397,1.1442,1.1497,1.1561,1.1602,1.165,1.1697,1.1733,1.179,1.1862,1.1877,1.1949,1.2004,1.2096,1.2132,1.2188,1.2181,1.22,1.2205,1.221,1.2211,1.2101,1.2201,1.2201,1.2201,1.2201,1.22,0,1.1489,1.1525,1.1583,1.1653,1.1703,1.1705,1.1762,1.1803,1.1866,1.1916,1.197,1.2048,1.2113,1.216,1.2226,1.2262,1.2267,1.2278,1.2276,1.2284,1.2214,1.2196,1.2272,1.2272,1.2272,1.2272,1.2272,1.2272,1.1543,1.1619,1.164,1.1737,1.1773,1.1842,1.1874,1.1918,1.1958,1.2044,1.2097,1.2127,1.2176,1.2245,1.2304,1.2316,1.2339,1.2349,1.2362,1.2296,1.2289,1.2281,1.2265,1.2354,1.2354,1.2427,1.2428,1.2429]}]]